EW5040 Weather Reports


Display with metric or nautical units.
time (UTC)temp
F
wind
direction
speed
MPH
gust
MPH
rain 1hr
in
rain 24hr
in
rain mn
in
humidity
%
barometer
mb
20260503053050 32 198 0.0 0.0 0.00 0.00 0.00 89 1014.7
20260503051547 32 198 0.0 0.0 0.00 0.00 0.00 89 1014.9
20260503050045 33 198 0.0 1.0 0.00 0.00 0.00 88 1015.0
20260503044544 33 198 0.0 1.0 0.00 0.00 0.00 87 1015.0
20260503043039 34 198 0.0 0.0 0.00 0.00 0.00 86 1015.2
20260503041540 35 198 0.0 0.0 0.00 0.00 0.00 85 1015.2
20260503040033 35 198 0.0 0.0 0.00 0.00 0.00 84 1015.2
20260503034535 37 198 0.0 0.0 0.00 0.00 0.00 84 1015.2
20260503033032 37 198 0.0 0.0 0.00 0.00 0.00 83 1015.3
20260503031534 38 198 0.0 0.0 0.00 0.00 0.00 84 1015.4
20260503030033 39 198 0.0 0.0 0.00 0.00 0.00 85 1015.3
20260503024531 39 198 0.0 0.0 0.00 0.00 0.00 84 1015.4
20260503023033 40 198 0.0 0.0 0.00 0.00 0.00 84 1015.6
20260503021529 40 198 0.0 0.0 0.00 0.00 0.00 82 1015.6
20260503020028 40 198 0.0 0.0 0.00 0.00 0.00 81 1015.6
20260503014526 40 198 0.0 0.0 0.00 0.00 0.00 80 1015.7
20260503013034 41 198 0.0 1.0 0.00 0.00 0.00 79 1015.7
20260503011529 41 198 0.0 1.0 0.00 0.00 0.00 78 1015.7
20260503010024 41 198 0.0 3.0 0.00 0.00 0.00 78 1015.6
20260503004523 41 244 1.0 3.0 0.00 0.00 0.00 77 1015.5
20260503003023 41 247 0.0 4.0 0.00 0.00 0.00 76 1015.4
20260503001522 41 201 1.0 3.0 0.00 0.00 0.00 77 1015.4
20260503000021 41 237 0.0 3.0 0.00 0.00 0.00 77 1015.3
20260502234521 41 251 1.0 4.0 0.00 0.00 0.00 76 1015.3
20260502233021 41 242 1.0 5.0 0.00 0.00 0.00 73 1015.3
20260502231520 41 231 1.0 5.0 0.00 0.00 0.00 74 1015.3
20260502230018 41 284 2.0 5.0 0.00 0.00 0.00 74 1015.3
20260502224518 41 211 1.0 4.0 0.00 0.00 0.00 74 1015.3
20260502223018 42 236 2.0 5.0 0.00 0.00 0.00 73 1015.2
20260502221519 42 255 1.0 4.0 0.00 0.00 0.00 73 1015.2
20260502220016 42 248 2.0 6.0 0.00 0.00 0.00 72 1015.2
20260502214516 43 229 2.0 7.0 0.00 0.00 0.00 70 1015.2
20260502213115 43 317 3.0 9.0 0.00 0.00 0.00 69 1015.2
20260502211514 44 207 5.0 12.0 0.00 0.00 0.00 69 1015.0
20260502210013 44 214 6.0 12.0 0.00 0.00 0.00 67 1015.1
20260502204516 43 209 3.0 10.0 0.00 0.00 0.00 70 1015.0
20260502203012 42 240 5.0 13.0 0.00 0.00 0.00 72 1015.2
20260502201512 41 226 4.0 10.0 0.00 0.00 0.00 74 1015.4
20260502200011 41 244 4.0 11.0 0.00 0.00 0.00 74 1015.6
20260502194509 41 227 4.0 11.0 0.00 0.00 0.00 72 1015.8
20260502193010 42 258 5.0 13.0 0.00 0.00 0.00 67 1015.9
20260502191509 43 239 5.0 12.0 0.00 0.00 0.00 66 1015.8
20260502190008 43 242 6.0 14.0 0.00 0.00 0.00 66 1015.7
20260502184509 42 202 3.0 10.0 0.00 0.02 0.00 66 1015.7
20260502183007 42 261 2.0 11.0 0.00 0.02 0.00 67 1015.7
20260502181508 42 253 4.0 9.0 0.00 0.02 0.00 69 1015.8
20260502163100 44 258 4.0 10.0 0.00 0.03 0.00 58 1015.5
20260502161625 45 288 4.0 9.0 0.00 0.03 0.00 58 1015.6
20260502160132 44 306 2.0 5.0 0.00 0.03 0.00 56 1015.5
20260502151559 46 304 2.0 6.0 0.00 0.03 0.00 54 1015.5
20260502123037 39 281 1.0 4.0 0.00 0.03 0.00 79 1016.2
20260502121520 37 267 1.0 5.0 0.00 0.03 0.00 81 1016.2
20260502114516 35 238 2.0 7.0 0.00 0.03 0.00 85 1016.1
20260502113013 34 319 0.0 2.0 0.00 0.03 0.00 86 1016.0
20260502111510 33 279 0.0 2.0 0.00 0.03 0.00 88 1015.9
20260502110007 32 290 0.0 2.0 0.00 0.03 0.00 89 1015.8
20260502104504 32 290 0.0 2.0 0.00 0.03 0.00 89 1015.8
20260502103005 31 290 0.0 1.0 0.00 0.03 0.00 88 1015.7
20260502101604 32 290 0.0 1.0 0.00 0.03 0.00 88 1015.4
20260502070038 34 270 1.0 2.0 0.00 0.03 0.00 82 1014.7
20260502064538 34 224 1.0 5.0 0.00 0.03 0.00 81 1015.0
20260502063051 34 271 1.0 4.0 0.00 0.03 0.00 81 1015.0
20260502061536 34 248 1.0 2.0 0.00 0.03 0.00 81 1015.1
20260502060034 35 286 0.0 2.0 0.00 0.03 0.00 81 1015.0
20260502054531 35 288 0.0 1.0 0.00 0.03 0.00 81 1015.2